DATASET_CODE,METLOCID,DATE_TIME,WVAPD,WVAPD_COMMENTS
VAAM_WVAPD,VAAM,1/20/95 17:00,2.21,
VAAM_WVAPD,VAAM,1/20/95 18:00,2.29,
VAAM_WVAPD,VAAM,1/20/95 19:00,2.26,
VAAM_WVAPD,VAAM,1/20/95 20:00,2.24,
VAAM_WVAPD,VAAM,1/20/95 21:00,2.21,
VAAM_WVAPD,VAAM,1/20/95 22:00,2.13,
VAAM_WVAPD,VAAM,1/20/95 23:00,2.04,
VAAM_WVAPD,VAAM,1/21/95 0:00,1.91,
VAAM_WVAPD,VAAM,1/21/95 1:00,1.81,
VAAM_WVAPD,VAAM,1/21/95 2:00,1.78,
VAAM_WVAPD,VAAM,1/21/95 3:00,1.75,
VAAM_WVAPD,VAAM,1/21/95 4:00,1.75,
VAAM_WVAPD,VAAM,1/21/95 5:00,1.73,
VAAM_WVAPD,VAAM,1/21/95 6:00,1.71,
VAAM_WVAPD,VAAM,1/21/95 7:00,1.73,
VAAM_WVAPD,VAAM,1/21/95 8:00,1.75,
VAAM_WVAPD,VAAM,1/21/95 9:00,1.57,
VAAM_WVAPD,VAAM,1/21/95 10:00,1.08,
VAAM_WVAPD,VAAM,1/21/95 11:00,1.11,
VAAM_WVAPD,VAAM,1/21/95 12:00,1.14,
VAAM_WVAPD,VAAM,1/21/95 13:00,1.17,
VAAM_WVAPD,VAAM,1/21/95 14:00,1.17,
VAAM_WVAPD,VAAM,1/21/95 15:00,1.19,
VAAM_WVAPD,VAAM,1/21/95 16:00,1.17,
VAAM_WVAPD,VAAM,1/21/95 17:00,1.17,
VAAM_WVAPD,VAAM,1/21/95 18:00,1.18,
VAAM_WVAPD,VAAM,1/21/95 19:00,1.19,
VAAM_WVAPD,VAAM,1/21/95 20:00,1.14,
VAAM_WVAPD,VAAM,1/21/95 21:00,1.05,
VAAM_WVAPD,VAAM,1/21/95 22:00,1.03,
VAAM_WVAPD,VAAM,1/21/95 23:00,1.05,
VAAM_WVAPD,VAAM,1/22/95 0:00,1.13,
VAAM_WVAPD,VAAM,1/22/95 1:00,1.16,
VAAM_WVAPD,VAAM,1/22/95 2:00,1.13,
VAAM_WVAPD,VAAM,1/22/95 3:00,1.1,
VAAM_WVAPD,VAAM,1/22/95 4:00,1.18,
VAAM_WVAPD,VAAM,1/22/95 5:00,1.12,
VAAM_WVAPD,VAAM,1/22/95 6:00,1.14,
VAAM_WVAPD,VAAM,1/22/95 7:00,1.13,
VAAM_WVAPD,VAAM,1/22/95 8:00,1.34,
VAAM_WVAPD,VAAM,1/22/95 9:00,1.4,
VAAM_WVAPD,VAAM,1/22/95 10:00,1.4,
VAAM_WVAPD,VAAM,1/22/95 11:00,1.55,
VAAM_WVAPD,VAAM,1/22/95 12:00,1.3,
VAAM_WVAPD,VAAM,1/22/95 13:00,1.31,
VAAM_WVAPD,VAAM,1/22/95 14:00,1.26,
VAAM_WVAPD,VAAM,1/22/95 15:00,1.23,
VAAM_WVAPD,VAAM,1/22/95 16:00,1.24,
VAAM_WVAPD,VAAM,1/22/95 17:00,1.27,
VAAM_WVAPD,VAAM,1/22/95 18:00,1.27,
VAAM_WVAPD,VAAM,1/22/95 19:00,1.28,
VAAM_WVAPD,VAAM,1/22/95 20:00,1.26,
VAAM_WVAPD,VAAM,1/22/95 21:00,1.26,
VAAM_WVAPD,VAAM,1/22/95 22:00,1.25,
VAAM_WVAPD,VAAM,1/22/95 23:00,1.19,
VAAM_WVAPD,VAAM,1/23/95 0:00,1.14,
VAAM_WVAPD,VAAM,1/23/95 1:00,1.2,
VAAM_WVAPD,VAAM,1/23/95 2:00,1.4,
VAAM_WVAPD,VAAM,1/23/95 3:00,1.36,
VAAM_WVAPD,VAAM,1/23/95 4:00,1.79,
VAAM_WVAPD,VAAM,1/23/95 5:00,1.79,
VAAM_WVAPD,VAAM,1/23/95 6:00,1.78,
VAAM_WVAPD,VAAM,1/23/95 7:00,1.81,
VAAM_WVAPD,VAAM,1/23/95 8:00,1.88,
VAAM_WVAPD,VAAM,1/23/95 9:00,2.01,
VAAM_WVAPD,VAAM,1/23/95 10:00,1.87,
VAAM_WVAPD,VAAM,1/23/95 11:00,1.5,
VAAM_WVAPD,VAAM,1/23/95 12:00,1.38,
VAAM_WVAPD,VAAM,1/23/95 13:00,1.34,
VAAM_WVAPD,VAAM,1/23/95 14:00,1.33,
VAAM_WVAPD,VAAM,1/23/95 15:00,1.42,
VAAM_WVAPD,VAAM,1/23/95 16:00,1.55,
VAAM_WVAPD,VAAM,1/23/95 17:00,1.7,
VAAM_WVAPD,VAAM,1/23/95 18:00,1.75,
VAAM_WVAPD,VAAM,1/23/95 19:00,1.6,
VAAM_WVAPD,VAAM,1/23/95 20:00,1.48,
VAAM_WVAPD,VAAM,1/23/95 21:00,1.74,
VAAM_WVAPD,VAAM,1/23/95 22:00,1.88,
VAAM_WVAPD,VAAM,1/23/95 23:00,1.84,
VAAM_WVAPD,VAAM,1/24/95 0:00,1.79,
VAAM_WVAPD,VAAM,1/24/95 1:00,1.77,
VAAM_WVAPD,VAAM,1/24/95 2:00,1.77,
VAAM_WVAPD,VAAM,1/24/95 3:00,1.74,
VAAM_WVAPD,VAAM,1/24/95 4:00,1.77,
VAAM_WVAPD,VAAM,1/24/95 5:00,1.77,
VAAM_WVAPD,VAAM,1/24/95 6:00,1.72,
VAAM_WVAPD,VAAM,1/24/95 7:00,1.81,
VAAM_WVAPD,VAAM,1/24/95 8:00,1.88,
VAAM_WVAPD,VAAM,1/24/95 9:00,1.9,
VAAM_WVAPD,VAAM,1/24/95 10:00,1.79,
VAAM_WVAPD,VAAM,1/24/95 11:00,1.69,
VAAM_WVAPD,VAAM,1/24/95 12:00,1.69,
VAAM_WVAPD,VAAM,1/24/95 13:00,1.83,
VAAM_WVAPD,VAAM,1/24/95 14:00,1.96,
VAAM_WVAPD,VAAM,1/24/95 15:00,1.97,
VAAM_WVAPD,VAAM,1/24/95 16:00,1.97,
VAAM_WVAPD,VAAM,1/24/95 17:00,1.95,
VAAM_WVAPD,VAAM,1/24/95 18:00,1.92,
VAAM_WVAPD,VAAM,1/24/95 19:00,1.9,
VAAM_WVAPD,VAAM,1/24/95 20:00,1.88,
VAAM_WVAPD,VAAM,1/24/95 21:00,1.89,
VAAM_WVAPD,VAAM,1/24/95 22:00,1.84,
VAAM_WVAPD,VAAM,1/24/95 23:00,1.81,
VAAM_WVAPD,VAAM,1/25/95 0:00,1.78,
VAAM_WVAPD,VAAM,1/25/95 1:00,1.75,
VAAM_WVAPD,VAAM,1/25/95 2:00,1.77,
VAAM_WVAPD,VAAM,1/25/95 3:00,1.93,
VAAM_WVAPD,VAAM,1/25/95 4:00,2.02,
VAAM_WVAPD,VAAM,1/25/95 5:00,2.02,
VAAM_WVAPD,VAAM,1/25/95 6:00,2.03,
VAAM_WVAPD,VAAM,1/25/95 7:00,1.99,
VAAM_WVAPD,VAAM,1/25/95 8:00,2.16,
VAAM_WVAPD,VAAM,1/25/95 9:00,2.13,
VAAM_WVAPD,VAAM,1/25/95 10:00,1.92,
VAAM_WVAPD,VAAM,1/25/95 11:00,1.7,
VAAM_WVAPD,VAAM,1/25/95 12:00,1.47,
VAAM_WVAPD,VAAM,1/25/95 13:00,1.38,
VAAM_WVAPD,VAAM,1/25/95 14:00,1.34,
VAAM_WVAPD,VAAM,1/25/95 15:00,1.31,
VAAM_WVAPD,VAAM,1/25/95 16:00,1.3,
VAAM_WVAPD,VAAM,1/25/95 17:00,1.29,
VAAM_WVAPD,VAAM,1/25/95 18:00,1.27,
VAAM_WVAPD,VAAM,1/25/95 19:00,1.3,
VAAM_WVAPD,VAAM,1/25/95 20:00,1.3,
VAAM_WVAPD,VAAM,1/25/95 21:00,1.38,
VAAM_WVAPD,VAAM,1/25/95 22:00,1.41,
VAAM_WVAPD,VAAM,1/25/95 23:00,1.4,
VAAM_WVAPD,VAAM,1/26/95 0:00,1.39,
VAAM_WVAPD,VAAM,1/26/95 1:00,1.47,
VAAM_WVAPD,VAAM,1/26/95 2:00,1.52,
VAAM_WVAPD,VAAM,1/26/95 3:00,1.5,
VAAM_WVAPD,VAAM,1/26/95 4:00,1.55,
VAAM_WVAPD,VAAM,1/26/95 5:00,1.66,
VAAM_WVAPD,VAAM,1/26/95 6:00,1.58,
VAAM_WVAPD,VAAM,1/26/95 7:00,1.64,
VAAM_WVAPD,VAAM,1/26/95 8:00,1.87,
VAAM_WVAPD,VAAM,1/26/95 9:00,1.97,
VAAM_WVAPD,VAAM,1/26/95 10:00,2,
VAAM_WVAPD,VAAM,1/26/95 11:00,1.99,
VAAM_WVAPD,VAAM,1/26/95 12:00,1.98,
VAAM_WVAPD,VAAM,1/26/95 13:00,2,
VAAM_WVAPD,VAAM,1/26/95 14:00,2.01,
VAAM_WVAPD,VAAM,1/26/95 15:00,2.01,
VAAM_WVAPD,VAAM,1/26/95 16:00,2,
VAAM_WVAPD,VAAM,1/26/95 17:00,1.99,
VAAM_WVAPD,VAAM,1/26/95 18:00,2.04,
VAAM_WVAPD,VAAM,1/26/95 19:00,2.03,
VAAM_WVAPD,VAAM,1/26/95 20:00,1.98,
VAAM_WVAPD,VAAM,1/26/95 21:00,1.95,
VAAM_WVAPD,VAAM,1/26/95 22:00,1.96,
VAAM_WVAPD,VAAM,1/26/95 23:00,1.94,
VAAM_WVAPD,VAAM,1/27/95 0:00,1.92,
VAAM_WVAPD,VAAM,1/27/95 1:00,1.91,
VAAM_WVAPD,VAAM,1/27/95 2:00,1.89,
VAAM_WVAPD,VAAM,1/27/95 3:00,1.95,
VAAM_WVAPD,VAAM,1/27/95 4:00,2.11,
VAAM_WVAPD,VAAM,1/27/95 5:00,1.97,
VAAM_WVAPD,VAAM,1/27/95 6:00,1.92,
VAAM_WVAPD,VAAM,1/27/95 7:00,2.09,
VAAM_WVAPD,VAAM,1/27/95 8:00,2.17,
VAAM_WVAPD,VAAM,1/27/95 9:00,2.24,
VAAM_WVAPD,VAAM,1/27/95 10:00,2.41,
VAAM_WVAPD,VAAM,1/27/95 11:00,1.42,
VAAM_WVAPD,VAAM,1/27/95 12:00,1.33,
VAAM_WVAPD,VAAM,1/27/95 13:00,1.62,
VAAM_WVAPD,VAAM,1/27/95 14:00,1.7,
VAAM_WVAPD,VAAM,1/27/95 15:00,1.63,
VAAM_WVAPD,VAAM,1/27/95 16:00,1.45,
VAAM_WVAPD,VAAM,1/27/95 17:00,1.39,
VAAM_WVAPD,VAAM,1/27/95 18:00,1.37,
VAAM_WVAPD,VAAM,1/27/95 19:00,1.36,
VAAM_WVAPD,VAAM,1/27/95 20:00,1.38,
VAAM_WVAPD,VAAM,1/27/95 21:00,1.51,
VAAM_WVAPD,VAAM,1/27/95 22:00,1.62,
VAAM_WVAPD,VAAM,1/27/95 23:00,1.72,
VAAM_WVAPD,VAAM,1/28/95 0:00,1.73,
VAAM_WVAPD,VAAM,1/28/95 1:00,1.76,
VAAM_WVAPD,VAAM,1/28/95 2:00,1.81,
VAAM_WVAPD,VAAM,1/28/95 3:00,1.79,
VAAM_WVAPD,VAAM,1/28/95 4:00,1.84,
VAAM_WVAPD,VAAM,1/28/95 5:00,1.87,
VAAM_WVAPD,VAAM,1/28/95 6:00,1.94,
VAAM_WVAPD,VAAM,1/28/95 7:00,1.99,
VAAM_WVAPD,VAAM,1/28/95 8:00,2.05,
VAAM_WVAPD,VAAM,1/28/95 9:00,2.09,
VAAM_WVAPD,VAAM,1/28/95 10:00,2.11,
VAAM_WVAPD,VAAM,1/28/95 11:00,2.03,
VAAM_WVAPD,VAAM,1/28/95 12:00,1.99,
VAAM_WVAPD,VAAM,1/28/95 13:00,1.9,
VAAM_WVAPD,VAAM,1/28/95 14:00,1.76,
VAAM_WVAPD,VAAM,1/28/95 15:00,1.76,
VAAM_WVAPD,VAAM,1/28/95 16:00,1.65,
VAAM_WVAPD,VAAM,1/28/95 17:00,1.56,
VAAM_WVAPD,VAAM,1/28/95 18:00,1.64,
VAAM_WVAPD,VAAM,1/28/95 19:00,1.73,
VAAM_WVAPD,VAAM,1/28/95 20:00,1.84,
VAAM_WVAPD,VAAM,1/28/95 21:00,2.04,
VAAM_WVAPD,VAAM,1/28/95 22:00,2.05,
VAAM_WVAPD,VAAM,1/28/95 23:00,2.07,
VAAM_WVAPD,VAAM,1/29/95 0:00,1.93,
VAAM_WVAPD,VAAM,1/29/95 1:00,1.86,
VAAM_WVAPD,VAAM,1/29/95 2:00,1.82,
VAAM_WVAPD,VAAM,1/29/95 3:00,1.88,
VAAM_WVAPD,VAAM,1/29/95 4:00,1.87,
VAAM_WVAPD,VAAM,1/29/95 5:00,1.87,
VAAM_WVAPD,VAAM,1/29/95 6:00,2.06,
VAAM_WVAPD,VAAM,1/29/95 7:00,2.19,
VAAM_WVAPD,VAAM,1/29/95 8:00,2.3,
VAAM_WVAPD,VAAM,1/29/95 9:00,2.27,
VAAM_WVAPD,VAAM,1/29/95 10:00,2.1,
VAAM_WVAPD,VAAM,1/29/95 11:00,1.96,
VAAM_WVAPD,VAAM,1/29/95 12:00,1.79,
VAAM_WVAPD,VAAM,1/29/95 13:00,1.47,
VAAM_WVAPD,VAAM,1/29/95 14:00,1.44,
VAAM_WVAPD,VAAM,1/29/95 15:00,1.31,
VAAM_WVAPD,VAAM,1/29/95 16:00,1.39,
VAAM_WVAPD,VAAM,1/29/95 17:00,1.39,
VAAM_WVAPD,VAAM,1/29/95 18:00,1.33,
VAAM_WVAPD,VAAM,1/29/95 19:00,1.19,
VAAM_WVAPD,VAAM,1/29/95 20:00,1.19,
VAAM_WVAPD,VAAM,1/29/95 21:00,1.17,
VAAM_WVAPD,VAAM,1/29/95 22:00,1.18,
VAAM_WVAPD,VAAM,1/29/95 23:00,1.15,
VAAM_WVAPD,VAAM,1/30/95 0:00,1.07,
VAAM_WVAPD,VAAM,1/30/95 1:00,1.09,
VAAM_WVAPD,VAAM,1/30/95 2:00,1.08,
VAAM_WVAPD,VAAM,1/30/95 3:00,1.09,
VAAM_WVAPD,VAAM,1/30/95 4:00,1.07,
VAAM_WVAPD,VAAM,1/30/95 5:00,1.04,
VAAM_WVAPD,VAAM,1/30/95 6:00,0.99,
VAAM_WVAPD,VAAM,1/30/95 7:00,0.95,
VAAM_WVAPD,VAAM,1/30/95 8:00,0.96,
VAAM_WVAPD,VAAM,1/30/95 9:00,1.1,
VAAM_WVAPD,VAAM,1/30/95 10:00,1.15,
VAAM_WVAPD,VAAM,1/30/95 11:00,1.19,
VAAM_WVAPD,VAAM,1/30/95 12:00,1.2,
VAAM_WVAPD,VAAM,1/30/95 13:00,1.2,
VAAM_WVAPD,VAAM,1/30/95 14:00,1.14,
VAAM_WVAPD,VAAM,1/30/95 15:00,1.15,
VAAM_WVAPD,VAAM,1/30/95 16:00,1.22,
VAAM_WVAPD,VAAM,1/30/95 17:00,1.16,
VAAM_WVAPD,VAAM,1/30/95 18:00,1.17,
VAAM_WVAPD,VAAM,1/30/95 19:00,1.15,
VAAM_WVAPD,VAAM,1/30/95 20:00,1.12,
VAAM_WVAPD,VAAM,1/30/95 21:00,1.11,
VAAM_WVAPD,VAAM,1/30/95 22:00,1.09,
VAAM_WVAPD,VAAM,1/30/95 23:00,1.06,
VAAM_WVAPD,VAAM,1/31/95 0:00,1.02,
VAAM_WVAPD,VAAM,1/31/95 1:00,0.98,
VAAM_WVAPD,VAAM,1/31/95 2:00,0.94,
VAAM_WVAPD,VAAM,1/31/95 3:00,0.89,
VAAM_WVAPD,VAAM,1/31/95 4:00,0.86,
VAAM_WVAPD,VAAM,1/31/95 5:00,0.85,
VAAM_WVAPD,VAAM,1/31/95 6:00,0.85,
VAAM_WVAPD,VAAM,1/31/95 7:00,1.13,
VAAM_WVAPD,VAAM,1/31/95 8:00,1.04,
VAAM_WVAPD,VAAM,1/31/95 9:00,1.27,
VAAM_WVAPD,VAAM,1/31/95 10:00,1.47,
VAAM_WVAPD,VAAM,1/31/95 11:00,1.06,
VAAM_WVAPD,VAAM,1/31/95 12:00,1.09,
VAAM_WVAPD,VAAM,1/31/95 13:00,1.09,
VAAM_WVAPD,VAAM,1/31/95 14:00,1.13,
VAAM_WVAPD,VAAM,1/31/95 15:00,1.24,
VAAM_WVAPD,VAAM,1/31/95 16:00,1.37,
VAAM_WVAPD,VAAM,1/31/95 17:00,1.37,
VAAM_WVAPD,VAAM,1/31/95 18:00,1.42,
VAAM_WVAPD,VAAM,1/31/95 19:00,1.27,
VAAM_WVAPD,VAAM,1/31/95 20:00,1.14,
VAAM_WVAPD,VAAM,1/31/95 21:00,1.12,
VAAM_WVAPD,VAAM,1/31/95 22:00,1.06,
VAAM_WVAPD,VAAM,1/31/95 23:00,0.99,
VAAM_WVAPD,VAAM,2/1/95 0:00,0.93,
VAAM_WVAPD,VAAM,2/1/95 1:00,0.88,
VAAM_WVAPD,VAAM,2/1/95 2:00,0.85,
VAAM_WVAPD,VAAM,2/1/95 3:00,0.82,
VAAM_WVAPD,VAAM,2/1/95 4:00,0.82,
VAAM_WVAPD,VAAM,2/1/95 5:00,0.82,
VAAM_WVAPD,VAAM,2/1/95 6:00,0.8,
VAAM_WVAPD,VAAM,2/1/95 7:00,0.82,
VAAM_WVAPD,VAAM,2/1/95 8:00,0.86,
VAAM_WVAPD,VAAM,2/1/95 9:00,0.89,
VAAM_WVAPD,VAAM,2/1/95 10:00,0.92,
VAAM_WVAPD,VAAM,2/1/95 11:00,1.03,
VAAM_WVAPD,VAAM,2/1/95 12:00,1.05,
VAAM_WVAPD,VAAM,2/1/95 13:00,1.05,
VAAM_WVAPD,VAAM,2/1/95 14:00,1.05,
VAAM_WVAPD,VAAM,2/1/95 15:00,1.05,
VAAM_WVAPD,VAAM,2/1/95 16:00,1.09,
VAAM_WVAPD,VAAM,2/1/95 17:00,1.14,
VAAM_WVAPD,VAAM,2/1/95 18:00,1.14,
VAAM_WVAPD,VAAM,2/1/95 19:00,1.16,
VAAM_WVAPD,VAAM,2/1/95 20:00,1.16,
VAAM_WVAPD,VAAM,2/1/95 21:00,1.12,
VAAM_WVAPD,VAAM,2/1/95 22:00,1.12,
VAAM_WVAPD,VAAM,2/1/95 23:00,1.12,
VAAM_WVAPD,VAAM,2/2/95 0:00,1.08,
VAAM_WVAPD,VAAM,2/2/95 1:00,1.07,
VAAM_WVAPD,VAAM,2/2/95 2:00,1.06,
VAAM_WVAPD,VAAM,2/2/95 3:00,1.02,
VAAM_WVAPD,VAAM,2/2/95 4:00,0.99,
VAAM_WVAPD,VAAM,2/2/95 5:00,0.98,
VAAM_WVAPD,VAAM,2/2/95 6:00,1.01,
VAAM_WVAPD,VAAM,2/2/95 7:00,1.04,
VAAM_WVAPD,VAAM,2/2/95 8:00,1.04,
VAAM_WVAPD,VAAM,2/2/95 9:00,1.05,
VAAM_WVAPD,VAAM,2/2/95 10:00,1.09,
VAAM_WVAPD,VAAM,2/2/95 11:00,1.16,
VAAM_WVAPD,VAAM,2/2/95 12:00,1.19,
VAAM_WVAPD,VAAM,2/2/95 13:00,1.2,
VAAM_WVAPD,VAAM,2/2/95 14:00,1.24,
VAAM_WVAPD,VAAM,2/2/95 15:00,1.29,
VAAM_WVAPD,VAAM,2/2/95 16:00,1.33,
VAAM_WVAPD,VAAM,2/2/95 17:00,1.34,
VAAM_WVAPD,VAAM,2/2/95 18:00,1.34,
VAAM_WVAPD,VAAM,2/2/95 19:00,1.34,
VAAM_WVAPD,VAAM,2/2/95 20:00,1.39,
VAAM_WVAPD,VAAM,2/2/95 21:00,1.41,
VAAM_WVAPD,VAAM,2/2/95 22:00,1.44,
VAAM_WVAPD,VAAM,2/2/95 23:00,1.4,
VAAM_WVAPD,VAAM,2/3/95 0:00,1.41,
VAAM_WVAPD,VAAM,2/3/95 1:00,1.4,
VAAM_WVAPD,VAAM,2/3/95 2:00,1.29,
VAAM_WVAPD,VAAM,2/3/95 3:00,1.24,
VAAM_WVAPD,VAAM,2/3/95 4:00,1.25,
VAAM_WVAPD,VAAM,2/3/95 5:00,1.2,
VAAM_WVAPD,VAAM,2/3/95 6:00,1.17,
VAAM_WVAPD,VAAM,2/3/95 7:00,1.14,
VAAM_WVAPD,VAAM,2/3/95 8:00,1.18,
VAAM_WVAPD,VAAM,2/3/95 9:00,1.23,
VAAM_WVAPD,VAAM,2/3/95 10:00,1.25,
VAAM_WVAPD,VAAM,2/3/95 11:00,1.3,
VAAM_WVAPD,VAAM,2/3/95 12:00,1.34,
VAAM_WVAPD,VAAM,2/3/95 13:00,1.36,
VAAM_WVAPD,VAAM,2/3/95 14:00,1.41,
VAAM_WVAPD,VAAM,2/3/95 15:00,1.46,
VAAM_WVAPD,VAAM,2/3/95 16:00,1.46,
VAAM_WVAPD,VAAM,2/3/95 17:00,1.52,
VAAM_WVAPD,VAAM,2/3/95 18:00,1.61,
VAAM_WVAPD,VAAM,2/3/95 19:00,1.53,
VAAM_WVAPD,VAAM,2/3/95 20:00,1.54,
VAAM_WVAPD,VAAM,2/3/95 21:00,1.7,
VAAM_WVAPD,VAAM,2/3/95 22:00,1.85,
VAAM_WVAPD,VAAM,2/3/95 23:00,1.81,
VAAM_WVAPD,VAAM,2/4/95 0:00,1.72,
VAAM_WVAPD,VAAM,2/4/95 1:00,1.63,
VAAM_WVAPD,VAAM,2/4/95 2:00,1.56,
VAAM_WVAPD,VAAM,2/4/95 3:00,1.53,
VAAM_WVAPD,VAAM,2/4/95 4:00,1.58,
VAAM_WVAPD,VAAM,2/4/95 5:00,1.6,
VAAM_WVAPD,VAAM,2/4/95 6:00,1.63,
VAAM_WVAPD,VAAM,2/4/95 7:00,1.65,
VAAM_WVAPD,VAAM,2/4/95 8:00,1.55,
VAAM_WVAPD,VAAM,2/4/95 9:00,1.19,
VAAM_WVAPD,VAAM,2/4/95 10:00,1.11,
VAAM_WVAPD,VAAM,2/4/95 11:00,1.38,
VAAM_WVAPD,VAAM,2/4/95 12:00,1.32,
VAAM_WVAPD,VAAM,2/4/95 13:00,1.17,
VAAM_WVAPD,VAAM,2/4/95 14:00,1.12,
VAAM_WVAPD,VAAM,2/4/95 15:00,1.1,
VAAM_WVAPD,VAAM,2/4/95 16:00,1.1,
VAAM_WVAPD,VAAM,2/4/95 17:00,1.09,
VAAM_WVAPD,VAAM,2/4/95 18:00,1.06,
VAAM_WVAPD,VAAM,2/4/95 19:00,1.1,
VAAM_WVAPD,VAAM,2/4/95 20:00,1.08,
VAAM_WVAPD,VAAM,2/4/95 21:00,1.02,
VAAM_WVAPD,VAAM,2/4/95 22:00,1.06,
VAAM_WVAPD,VAAM,2/4/95 23:00,0.99,
VAAM_WVAPD,VAAM,2/5/95 0:00,0.83,
VAAM_WVAPD,VAAM,2/5/95 1:00,0.76,
VAAM_WVAPD,VAAM,2/5/95 2:00,0.73,
VAAM_WVAPD,VAAM,2/5/95 3:00,0.7,
VAAM_WVAPD,VAAM,2/5/95 4:00,0.69,
VAAM_WVAPD,VAAM,2/5/95 5:00,0.66,
VAAM_WVAPD,VAAM,2/5/95 6:00,0.66,
VAAM_WVAPD,VAAM,2/5/95 7:00,0.65,
VAAM_WVAPD,VAAM,2/5/95 8:00,0.66,
VAAM_WVAPD,VAAM,2/5/95 9:00,0.64,
VAAM_WVAPD,VAAM,2/5/95 10:00,0.65,
VAAM_WVAPD,VAAM,2/5/95 11:00,0.65,
VAAM_WVAPD,VAAM,2/5/95 12:00,0.67,
VAAM_WVAPD,VAAM,2/5/95 13:00,0.66,
VAAM_WVAPD,VAAM,2/5/95 14:00,0.64,
VAAM_WVAPD,VAAM,2/5/95 15:00,0.63,
VAAM_WVAPD,VAAM,2/5/95 16:00,0.63,
VAAM_WVAPD,VAAM,2/5/95 17:00,0.62,
VAAM_WVAPD,VAAM,2/5/95 18:00,0.62,
VAAM_WVAPD,VAAM,2/5/95 19:00,0.61,
VAAM_WVAPD,VAAM,2/5/95 20:00,0.6,
VAAM_WVAPD,VAAM,2/5/95 21:00,0.57,
VAAM_WVAPD,VAAM,2/5/95 22:00,0.54,
VAAM_WVAPD,VAAM,2/5/95 23:00,0.5,
VAAM_WVAPD,VAAM,2/6/95 0:00,0.49,
VAAM_WVAPD,VAAM,2/6/95 1:00,0.53,
VAAM_WVAPD,VAAM,2/6/95 2:00,0.61,
VAAM_WVAPD,VAAM,2/6/95 3:00,0.71,
VAAM_WVAPD,VAAM,2/6/95 4:00,0.81,
VAAM_WVAPD,VAAM,2/6/95 5:00,0.85,
VAAM_WVAPD,VAAM,2/6/95 6:00,0.82,
VAAM_WVAPD,VAAM,2/6/95 7:00,0.8,
VAAM_WVAPD,VAAM,2/6/95 8:00,0.83,
VAAM_WVAPD,VAAM,2/6/95 9:00,0.83,
VAAM_WVAPD,VAAM,2/6/95 10:00,0.82,
VAAM_WVAPD,VAAM,2/6/95 11:00,0.86,
VAAM_WVAPD,VAAM,2/6/95 12:00,0.85,
VAAM_WVAPD,VAAM,2/6/95 13:00,0.85,
VAAM_WVAPD,VAAM,2/6/95 14:00,0.87,
VAAM_WVAPD,VAAM,2/6/95 15:00,0.9,
VAAM_WVAPD,VAAM,2/6/95 16:00,0.92,
VAAM_WVAPD,VAAM,2/6/95 17:00,0.94,
VAAM_WVAPD,VAAM,2/6/95 18:00,0.97,
VAAM_WVAPD,VAAM,2/6/95 19:00,1.01,
VAAM_WVAPD,VAAM,2/6/95 20:00,1.01,
VAAM_WVAPD,VAAM,2/6/95 21:00,1.01,
VAAM_WVAPD,VAAM,2/6/95 22:00,1.02,
VAAM_WVAPD,VAAM,2/6/95 23:00,1.02,
VAAM_WVAPD,VAAM,2/7/95 0:00,0.99,
VAAM_WVAPD,VAAM,2/7/95 1:00,0.94,
VAAM_WVAPD,VAAM,2/7/95 2:00,0.91,
VAAM_WVAPD,VAAM,2/7/95 3:00,0.88,
VAAM_WVAPD,VAAM,2/7/95 4:00,0.87,
VAAM_WVAPD,VAAM,2/7/95 5:00,0.87,
VAAM_WVAPD,VAAM,2/7/95 6:00,0.82,
VAAM_WVAPD,VAAM,2/7/95 7:00,0.95,
VAAM_WVAPD,VAAM,2/7/95 8:00,0.94,
VAAM_WVAPD,VAAM,2/7/95 9:00,1.35,
VAAM_WVAPD,VAAM,2/7/95 10:00,1.54,
VAAM_WVAPD,VAAM,2/7/95 11:00,1.29,
VAAM_WVAPD,VAAM,2/7/95 12:00,1.15,
VAAM_WVAPD,VAAM,2/7/95 13:00,1.05,
VAAM_WVAPD,VAAM,2/7/95 14:00,1.06,
VAAM_WVAPD,VAAM,2/7/95 15:00,1.06,
VAAM_WVAPD,VAAM,2/7/95 16:00,1.1,
VAAM_WVAPD,VAAM,2/7/95 17:00,1.2,
VAAM_WVAPD,VAAM,2/7/95 18:00,1.22,
VAAM_WVAPD,VAAM,2/7/95 19:00,1.22,
VAAM_WVAPD,VAAM,2/7/95 20:00,1.31,
VAAM_WVAPD,VAAM,2/7/95 21:00,1.35,
VAAM_WVAPD,VAAM,2/7/95 22:00,1.35,
VAAM_WVAPD,VAAM,2/7/95 23:00,1.32,
VAAM_WVAPD,VAAM,2/8/95 0:00,1.39,
VAAM_WVAPD,VAAM,2/8/95 1:00,1.47,
VAAM_WVAPD,VAAM,2/8/95 2:00,1.51,
VAAM_WVAPD,VAAM,2/8/95 3:00,1.53,
VAAM_WVAPD,VAAM,2/8/95 4:00,1.56,
VAAM_WVAPD,VAAM,2/8/95 5:00,1.56,
VAAM_WVAPD,VAAM,2/8/95 6:00,1.55,
VAAM_WVAPD,VAAM,2/8/95 7:00,1.55,
VAAM_WVAPD,VAAM,2/8/95 8:00,1.47,
VAAM_WVAPD,VAAM,2/8/95 9:00,1.12,
VAAM_WVAPD,VAAM,2/8/95 10:00,1,
VAAM_WVAPD,VAAM,2/8/95 11:00,1.01,
VAAM_WVAPD,VAAM,2/8/95 12:00,1.06,
VAAM_WVAPD,VAAM,2/8/95 13:00,1.06,
VAAM_WVAPD,VAAM,2/8/95 14:00,1.04,
VAAM_WVAPD,VAAM,2/8/95 15:00,1.05,
VAAM_WVAPD,VAAM,2/8/95 16:00,1.09,
VAAM_WVAPD,VAAM,2/8/95 17:00,1.1,
VAAM_WVAPD,VAAM,2/8/95 18:00,1.13,
VAAM_WVAPD,VAAM,2/8/95 19:00,1.11,
VAAM_WVAPD,VAAM,2/8/95 20:00,1.15,
VAAM_WVAPD,VAAM,2/8/95 21:00,1.16,
VAAM_WVAPD,VAAM,2/8/95 22:00,1.1,
VAAM_WVAPD,VAAM,2/8/95 23:00,1.05,
VAAM_WVAPD,VAAM,2/9/95 0:00,0.99,
VAAM_WVAPD,VAAM,2/9/95 1:00,0.94,
VAAM_WVAPD,VAAM,2/9/95 2:00,0.87,
VAAM_WVAPD,VAAM,2/9/95 3:00,0.85,
VAAM_WVAPD,VAAM,2/9/95 4:00,0.84,
VAAM_WVAPD,VAAM,2/9/95 5:00,0.8,
VAAM_WVAPD,VAAM,2/9/95 6:00,0.8,
VAAM_WVAPD,VAAM,2/9/95 7:00,0.82,
VAAM_WVAPD,VAAM,2/9/95 8:00,0.87,
VAAM_WVAPD,VAAM,2/9/95 9:00,0.88,
VAAM_WVAPD,VAAM,2/9/95 10:00,0.9,
VAAM_WVAPD,VAAM,2/9/95 11:00,0.93,
VAAM_WVAPD,VAAM,2/9/95 12:00,0.97,
VAAM_WVAPD,VAAM,2/9/95 13:00,1.14,
VAAM_WVAPD,VAAM,2/9/95 14:00,1.12,
VAAM_WVAPD,VAAM,2/9/95 15:00,1.08,
VAAM_WVAPD,VAAM,2/9/95 16:00,1.08,
VAAM_WVAPD,VAAM,2/9/95 17:00,1.16,
VAAM_WVAPD,VAAM,2/9/95 18:00,1.13,
VAAM_WVAPD,VAAM,2/9/95 19:00,1.12,
VAAM_WVAPD,VAAM,2/9/95 20:00,1.16,
VAAM_WVAPD,VAAM,2/9/95 21:00,1.18,
VAAM_WVAPD,VAAM,2/9/95 22:00,1.2,
VAAM_WVAPD,VAAM,2/9/95 23:00,1.17,
VAAM_WVAPD,VAAM,2/10/95 0:00,1.15,
VAAM_WVAPD,VAAM,2/10/95 1:00,1.18,
VAAM_WVAPD,VAAM,2/10/95 2:00,1.19,
VAAM_WVAPD,VAAM,2/10/95 3:00,1.18,
VAAM_WVAPD,VAAM,2/10/95 4:00,1.19,
VAAM_WVAPD,VAAM,2/10/95 5:00,1.17,
VAAM_WVAPD,VAAM,2/10/95 6:00,1.13,
VAAM_WVAPD,VAAM,2/10/95 7:00,1.12,
VAAM_WVAPD,VAAM,2/10/95 8:00,1.22,
VAAM_WVAPD,VAAM,2/10/95 9:00,1.29,
VAAM_WVAPD,VAAM,2/10/95 10:00,1.35,
VAAM_WVAPD,VAAM,2/10/95 11:00,1.43,
VAAM_WVAPD,VAAM,2/10/95 12:00,1.28,
VAAM_WVAPD,VAAM,2/10/95 13:00,1.28,
VAAM_WVAPD,VAAM,2/10/95 14:00,1.27,
VAAM_WVAPD,VAAM,2/10/95 15:00,1.26,
VAAM_WVAPD,VAAM,2/10/95 16:00,1.27,
VAAM_WVAPD,VAAM,2/10/95 17:00,1.24,
VAAM_WVAPD,VAAM,2/10/95 18:00,1.31,
VAAM_WVAPD,VAAM,2/10/95 19:00,1.37,
VAAM_WVAPD,VAAM,2/10/95 20:00,1.36,
VAAM_WVAPD,VAAM,2/10/95 21:00,1.33,
VAAM_WVAPD,VAAM,2/10/95 22:00,1.37,
VAAM_WVAPD,VAAM,2/10/95 23:00,1.46,
VAAM_WVAPD,VAAM,2/11/95 0:00,1.47,
VAAM_WVAPD,VAAM,2/11/95 1:00,1.35,
VAAM_WVAPD,VAAM,2/11/95 2:00,0.8,
VAAM_WVAPD,VAAM,2/11/95 3:00,0.75,
VAAM_WVAPD,VAAM,2/11/95 4:00,0.75,
VAAM_WVAPD,VAAM,2/11/95 5:00,0.79,
VAAM_WVAPD,VAAM,2/11/95 6:00,0.8,
VAAM_WVAPD,VAAM,2/11/95 7:00,0.74,
VAAM_WVAPD,VAAM,2/11/95 8:00,0.68,
VAAM_WVAPD,VAAM,2/11/95 9:00,0.7,
VAAM_WVAPD,VAAM,2/11/95 10:00,0.75,
VAAM_WVAPD,VAAM,2/11/95 11:00,0.78,
VAAM_WVAPD,VAAM,2/11/95 12:00,0.82,
VAAM_WVAPD,VAAM,2/11/95 13:00,0.85,
VAAM_WVAPD,VAAM,2/11/95 14:00,0.85,
VAAM_WVAPD,VAAM,2/11/95 15:00,0.87,
VAAM_WVAPD,VAAM,2/11/95 16:00,0.9,
VAAM_WVAPD,VAAM,2/11/95 17:00,1,
VAAM_WVAPD,VAAM,2/11/95 18:00,1.06,
VAAM_WVAPD,VAAM,2/11/95 19:00,1.07,
VAAM_WVAPD,VAAM,2/11/95 20:00,1.08,
VAAM_WVAPD,VAAM,2/11/95 21:00,1.11,
VAAM_WVAPD,VAAM,2/11/95 22:00,1.14,
VAAM_WVAPD,VAAM,2/11/95 23:00,1.17,
VAAM_WVAPD,VAAM,2/12/95 0:00,1.25,
VAAM_WVAPD,VAAM,2/12/95 1:00,1.29,
VAAM_WVAPD,VAAM,2/12/95 2:00,1.28,
VAAM_WVAPD,VAAM,2/12/95 3:00,1.29,
VAAM_WVAPD,VAAM,2/12/95 4:00,1.27,
VAAM_WVAPD,VAAM,2/12/95 5:00,1.28,
VAAM_WVAPD,VAAM,2/12/95 6:00,1.22,
VAAM_WVAPD,VAAM,2/12/95 7:00,1.2,
VAAM_WVAPD,VAAM,2/12/95 8:00,1.3,
VAAM_WVAPD,VAAM,2/12/95 9:00,1.37,
VAAM_WVAPD,VAAM,2/12/95 10:00,1.46,
VAAM_WVAPD,VAAM,2/12/95 11:00,1.42,
VAAM_WVAPD,VAAM,2/12/95 12:00,1.44,
VAAM_WVAPD,VAAM,2/12/95 13:00,1.13,
VAAM_WVAPD,VAAM,2/12/95 14:00,1.06,
VAAM_WVAPD,VAAM,2/12/95 15:00,0.99,
VAAM_WVAPD,VAAM,2/12/95 16:00,1.01,
VAAM_WVAPD,VAAM,2/12/95 17:00,1.01,
VAAM_WVAPD,VAAM,2/12/95 18:00,0.98,
VAAM_WVAPD,VAAM,2/12/95 19:00,0.96,
VAAM_WVAPD,VAAM,2/12/95 20:00,1,
VAAM_WVAPD,VAAM,2/12/95 21:00,1.01,
VAAM_WVAPD,VAAM,2/12/95 22:00,1.05,
VAAM_WVAPD,VAAM,2/12/95 23:00,1.02,
VAAM_WVAPD,VAAM,2/13/95 0:00,0.93,
VAAM_WVAPD,VAAM,2/13/95 1:00,0.91,
VAAM_WVAPD,VAAM,2/13/95 2:00,0.93,
VAAM_WVAPD,VAAM,2/13/95 3:00,0.94,
VAAM_WVAPD,VAAM,2/13/95 4:00,0.96,
VAAM_WVAPD,VAAM,2/13/95 5:00,0.93,
VAAM_WVAPD,VAAM,2/13/95 6:00,1,
VAAM_WVAPD,VAAM,2/13/95 7:00,1.3,
VAAM_WVAPD,VAAM,2/13/95 8:00,1.43,
VAAM_WVAPD,VAAM,2/13/95 9:00,1.41,
VAAM_WVAPD,VAAM,2/13/95 10:00,1.22,
VAAM_WVAPD,VAAM,2/13/95 11:00,1.2,
VAAM_WVAPD,VAAM,2/13/95 12:00,1.17,
VAAM_WVAPD,VAAM,2/13/95 13:00,1.12,
VAAM_WVAPD,VAAM,2/13/95 14:00,1.03,
VAAM_WVAPD,VAAM,2/13/95 15:00,1,
VAAM_WVAPD,VAAM,2/13/95 16:00,0.97,
VAAM_WVAPD,VAAM,2/13/95 17:00,0.96,
VAAM_WVAPD,VAAM,2/13/95 18:00,0.96,
VAAM_WVAPD,VAAM,2/13/95 19:00,1.09,
VAAM_WVAPD,VAAM,2/13/95 20:00,1.17,
VAAM_WVAPD,VAAM,2/13/95 21:00,1.19,
VAAM_WVAPD,VAAM,2/13/95 22:00,1.22,
VAAM_WVAPD,VAAM,2/13/95 23:00,1.2,
VAAM_WVAPD,VAAM,2/14/95 0:00,1.17,
VAAM_WVAPD,VAAM,2/14/95 1:00,1.14,
VAAM_WVAPD,VAAM,2/14/95 2:00,1.09,
VAAM_WVAPD,VAAM,2/14/95 3:00,1.07,
VAAM_WVAPD,VAAM,2/14/95 4:00,1.06,
VAAM_WVAPD,VAAM,2/14/95 5:00,1.04,
VAAM_WVAPD,VAAM,2/14/95 6:00,1.02,
VAAM_WVAPD,VAAM,2/14/95 7:00,1.01,
VAAM_WVAPD,VAAM,2/14/95 8:00,1.05,
VAAM_WVAPD,VAAM,2/14/95 9:00,1.16,
VAAM_WVAPD,VAAM,2/14/95 10:00,1.3,
VAAM_WVAPD,VAAM,2/14/95 11:00,1.36,
VAAM_WVAPD,VAAM,2/14/95 12:00,0.78,
VAAM_WVAPD,VAAM,2/14/95 13:00,0.78,
VAAM_WVAPD,VAAM,2/14/95 14:00,0.85,
VAAM_WVAPD,VAAM,2/14/95 15:00,0.92,
VAAM_WVAPD,VAAM,2/14/95 16:00,1.04,
VAAM_WVAPD,VAAM,2/14/95 17:00,1.11,
VAAM_WVAPD,VAAM,2/14/95 18:00,1.11,
VAAM_WVAPD,VAAM,2/14/95 19:00,1.08,
VAAM_WVAPD,VAAM,2/14/95 20:00,1.08,
VAAM_WVAPD,VAAM,2/14/95 21:00,1.1,
VAAM_WVAPD,VAAM,2/14/95 22:00,1.1,
VAAM_WVAPD,VAAM,2/14/95 23:00,1.09,
VAAM_WVAPD,VAAM,2/15/95 0:00,1.06,
VAAM_WVAPD,VAAM,2/15/95 1:00,1.07,
VAAM_WVAPD,VAAM,2/15/95 2:00,1.07,
VAAM_WVAPD,VAAM,2/15/95 3:00,1.14,
VAAM_WVAPD,VAAM,2/15/95 4:00,1.14,
VAAM_WVAPD,VAAM,2/15/95 5:00,1.11,
VAAM_WVAPD,VAAM,2/15/95 6:00,1.08,
VAAM_WVAPD,VAAM,2/15/95 7:00,1.09,
VAAM_WVAPD,VAAM,2/15/95 8:00,1.15,
VAAM_WVAPD,VAAM,2/15/95 9:00,1.21,
VAAM_WVAPD,VAAM,2/15/95 10:00,1.28,
VAAM_WVAPD,VAAM,2/15/95 11:00,1.29,
VAAM_WVAPD,VAAM,2/15/95 12:00,1.33,
VAAM_WVAPD,VAAM,2/15/95 13:00,1.33,
VAAM_WVAPD,VAAM,2/15/95 14:00,1.27,
VAAM_WVAPD,VAAM,2/15/95 15:00,1.16,
VAAM_WVAPD,VAAM,2/15/95 16:00,1,
VAAM_WVAPD,VAAM,2/15/95 17:00,1.14,
VAAM_WVAPD,VAAM,2/15/95 18:00,1.03,
VAAM_WVAPD,VAAM,2/15/95 19:00,0.9,
VAAM_WVAPD,VAAM,2/15/95 20:00,0.91,
VAAM_WVAPD,VAAM,2/15/95 21:00,0.95,
VAAM_WVAPD,VAAM,2/15/95 22:00,0.95,
VAAM_WVAPD,VAAM,2/15/95 23:00,0.93,
VAAM_WVAPD,VAAM,2/16/95 0:00,0.89,
VAAM_WVAPD,VAAM,2/16/95 1:00,0.84,
VAAM_WVAPD,VAAM,2/16/95 2:00,0.81,
VAAM_WVAPD,VAAM,2/16/95 3:00,0.79,
VAAM_WVAPD,VAAM,2/16/95 4:00,0.76,
VAAM_WVAPD,VAAM,2/16/95 5:00,0.75,
VAAM_WVAPD,VAAM,2/16/95 6:00,0.73,
VAAM_WVAPD,VAAM,2/16/95 7:00,0.74,
VAAM_WVAPD,VAAM,2/16/95 8:00,0.84,
VAAM_WVAPD,VAAM,2/16/95 9:00,0.87,
VAAM_WVAPD,VAAM,2/16/95 10:00,0.85,
VAAM_WVAPD,VAAM,2/16/95 11:00,0.86,
VAAM_WVAPD,VAAM,2/16/95 12:00,0.83,
VAAM_WVAPD,VAAM,2/16/95 13:00,0.86,
VAAM_WVAPD,VAAM,2/16/95 14:00,0.86,
VAAM_WVAPD,VAAM,2/16/95 15:00,0.86,
VAAM_WVAPD,VAAM,2/16/95 16:00,0.85,
VAAM_WVAPD,VAAM,2/16/95 17:00,0.86,
VAAM_WVAPD,VAAM,2/16/95 18:00,0.86,
VAAM_WVAPD,VAAM,2/16/95 19:00,0.87,
VAAM_WVAPD,VAAM,2/16/95 20:00,0.89,
VAAM_WVAPD,VAAM,2/16/95 21:00,0.9,
VAAM_WVAPD,VAAM,2/16/95 22:00,0.91,
VAAM_WVAPD,VAAM,2/16/95 23:00,0.92,
VAAM_WVAPD,VAAM,2/17/95 0:00,0.9,
VAAM_WVAPD,VAAM,2/17/95 1:00,0.88,
VAAM_WVAPD,VAAM,2/17/95 2:00,0.88,
VAAM_WVAPD,VAAM,2/17/95 3:00,0.89,
VAAM_WVAPD,VAAM,2/17/95 4:00,0.88,
VAAM_WVAPD,VAAM,2/17/95 5:00,0.88,
VAAM_WVAPD,VAAM,2/17/95 6:00,0.89,
VAAM_WVAPD,VAAM,2/17/95 7:00,0.9,